Weather History for San Antonio Stinson, TX

Change the Weather History Date:

Friday, February 24, 2012

  Actual Average Record
Temperature  
Mean Temperature 62 °F -  
Max Temperature 73 °F 65 °F 87 °F (2011)
Min Temperature 46 °F 46 °F 28 °F (2003)
Degree Days  
Heating Degree Days 3    
Growing Degree Days 12 (Base 50)    
Moisture  
Dew Point 27 °F    
Average Humidity 33    
Maximum Humidity 68    
Minimum Humidity 21    
Precipitation  
Precipitation 0.00 in - - ()
Sea Level Pressure  
Sea Level Pressure 30.13 in    
Wind  
Wind Speed 18 mph (NNE)    
Max Wind Speed 25 mph    
Max Gust Speed 39 mph    
Visibility 10 miles    
Events      
Averages and records for this station are not official NWS values.
T = Trace of Precipitation, MM = Missing Value Source: NWS Daily Summary

Daily Weather History Graph

Daily Weather History Graph

Search for Another Location

Airport:

Trip Planner

Search our weather history database for the weather conditions in past years. The results will help you decide how hot, cold, wet, or windy it might be!

Date:

Astronomy

Feb. 24, 2012 Rise Set
Actual Time 7:05 AM CST 6:29 PM CST
Civil Twilight 6:41 AM CST 6:53 PM CST
Nautical Twilight 6:13 AM CST 7:21 PM CST
Astronomical Twilight 5:45 AM CST 7:48 PM CST
Moon 8:17 AM CST (2/24) 9:14 PM CST (2/24)
Length of Visible Light 12h 12m
Length of Day
11h 24m
Waxing Crescent, 8% of the Moon is Illuminated
Feb 24
Waxing Crescent
Feb 29
First Quarter
Mar 8
Full
Mar 14
Last Quarter
Mar 22
New

Hourly Weather History & Observations

Time (CST) Temp. Dew Point Humidity Pressure Visibility Wind Dir Wind Speed Gust Speed Precip Events Conditions
12:53 AM 73.0 °F 62.1 °F 68% 29.73 in 7.0 mi North 23.0 mph 32.2 mph N/A   Mostly Cloudy
1:53 AM 66.0 °F 44.1 °F 45% 29.80 in 10.0 mi NNE 21.9 mph 32.2 mph N/A   Overcast
2:53 AM 62.1 °F 39.9 °F 44% 29.84 in 10.0 mi NNE 17.3 mph 32.2 mph N/A   Scattered Clouds
3:53 AM 57.9 °F 30.9 °F 36% 29.88 in 10.0 mi NNE 25.3 mph 35.7 mph N/A   Clear
4:53 AM 55.9 °F 21.9 °F 27% 29.92 in 10.0 mi NNE 24.2 mph 39.1 mph N/A   Clear
5:53 AM 54.0 °F 21.0 °F 28% 29.99 in 10.0 mi NNE 21.9 mph 34.5 mph N/A   Clear
6:53 AM 53.1 °F 23.0 °F 31% 30.04 in 10.0 mi NNE 17.3 mph 31.1 mph N/A   Clear
7:53 AM 52.0 °F 24.1 °F 34% 30.09 in 10.0 mi NNE 20.7 mph 28.8 mph N/A   Clear
8:53 AM 53.1 °F 25.0 °F 34% 30.14 in 10.0 mi NNE 19.6 mph 27.6 mph N/A   Scattered Clouds
9:53 AM 54.0 °F 24.1 °F 31% 30.18 in 10.0 mi NNE 20.7 mph 32.2 mph N/A   Clear
10:53 AM 57.0 °F 23.0 °F 27% 30.20 in 10.0 mi North 13.8 mph 24.2 mph N/A   Clear
11:53 AM 60.1 °F 19.9 °F 21% 30.22 in 10.0 mi NNE 20.7 mph 29.9 mph N/A   Clear
12:53 PM 60.1 °F 19.9 °F 21% 30.19 in 10.0 mi North 16.1 mph 31.1 mph N/A   Partly Cloudy
1:53 PM 63.0 °F 23.0 °F 22% 30.21 in 10.0 mi NNE 11.5 mph 21.9 mph N/A   Clear
2:53 PM 61.0 °F 23.0 °F 23% 30.22 in 10.0 mi North 13.8 mph 21.9 mph N/A   Mostly Cloudy
3:53 PM 62.1 °F 23.0 °F 22% 30.21 in 10.0 mi NNE 17.3 mph 21.9 mph N/A   Clear
4:53 PM 61.0 °F 19.9 °F 21% 30.21 in 10.0 mi NE 9.2 mph 18.4 mph N/A   Partly Cloudy
5:53 PM 60.1 °F 19.9 °F 21% 30.23 in 10.0 mi NE 9.2 mph - N/A   Clear
6:53 PM 55.0 °F 27.0 °F 34% 30.28 in 10.0 mi East 5.8 mph - N/A   Clear
7:53 PM 54.0 °F 26.1 °F 34% 30.30 in 10.0 mi ENE 8.1 mph - N/A   Clear
8:53 PM 54.0 °F 26.1 °F 34% 30.32 in 10.0 mi ENE 5.8 mph - N/A   Clear
9:53 PM 51.1 °F 27.0 °F 39% 30.34 in 10.0 mi NE 4.6 mph - N/A   Clear
11:53 PM 46.9 °F 32.0 °F 56% 30.40 in 10.0 mi Calm Calm - N/A   Clear